Banff, Alberta

10:10 AM MST on February 24, 2018 (GMT -0700)
Banff

Weather History for CWZG - February, 2014

Change the Weather History Date:

Thursday, February 20, 2014

  Actual Average Record
Temperature  
Mean Temperature 20 °F -  
Max Temperature 30 °F - - ()
Min Temperature 10 °F - - ()
Degree Days  
Heating Degree Days 45    
Moisture  
Dew Point 9 °F    
Average Humidity 61    
Maximum Humidity 83    
Minimum Humidity 38    
Precipitation  
Precipitation 0.28 in - - ()
Sea Level Pressure  
Sea Level Pressure 29.85 in    
Wind  
Wind Speed 4 mph ()    
Max Wind Speed 10 mph    
Max Gust Speed 22 mph    
T = Trace of Precipitation, MM = Missing Value Source: Averaged Metar Reports

Daily Weather History Graph

Daily Weather History Graph

Search for Another Location

Airport or City:

Trip Planner

Search our weather history database for the weather conditions in past years. The results will help you decide how hot, cold, wet, or windy it might be!

Date:

Astronomy

Feb. 20, 2014 Rise Set
Actual Time 7:45 AM MST 6:07 PM MST
Civil Twilight 7:11 AM MST 6:41 PM MST
Nautical Twilight 6:32 AM MST 7:19 PM MST
Astronomical Twilight 5:54 AM MST 7:58 PM MST
Moon No Moon Rise 9:50 AM MST (2/20)
Length of Visible Light 11h 29m
Length of Day
10h 22m
Waning Gibbous, 70% of the Moon is Illuminated
Feb 20
Waning Gibbous
Feb 22
Last Quarter
Mar 1
New
Mar 8
First Quarter
Mar 16
Full

Hourly Weather History & Observations

Time (MST) Temp. Windchill Dew Point Humidity Pressure Visibility Wind Dir Wind Speed Gust Speed Precip Events Conditions
12:00 AM 12.7 °F - 7.0 °F 78% 29.96 in - South 1.2 mph - N/A   Unknown
1:00 AM 10.6 °F - 6.3 °F 83% 29.98 in - Calm Calm - N/A   Unknown
2:00 AM 15.3 °F 9.6 °F 9.0 °F 76% 29.96 in - SW 3.5 mph - N/A   Unknown
3:00 AM 14.7 °F 7.3 °F 8.8 °F 77% 29.95 in - SW 4.6 mph - N/A   Unknown
4:00 AM 16.2 °F 9.0 °F 8.1 °F 70% 29.93 in - SW 4.6 mph - N/A   Unknown
5:00 AM 16.5 °F 11.0 °F 7.9 °F 69% 29.90 in - WSW 3.5 mph - N/A   Unknown
6:00 AM 16.7 °F 11.2 °F 7.2 °F 66% 29.90 in - SW 3.5 mph - N/A   Unknown
7:00 AM 15.4 °F 6.8 °F 7.5 °F 71% 29.89 in - WSW 5.8 mph - N/A   Unknown
8:00 AM 16.3 °F 10.8 °F 8.8 °F 72% 29.89 in - West 3.5 mph - N/A   Unknown
9:00 AM 17.2 °F 10.2 °F 9.0 °F 70% 29.87 in - WSW 4.6 mph - N/A   Unknown
10:00 AM 19.9 °F 13.4 °F 10.4 °F 67% 29.83 in - WSW 4.6 mph - N/A   Unknown
11:00 AM 22.8 °F 13.6 °F 11.1 °F 61% 29.81 in - SW 8.1 mph - N/A   Unknown
12:00 PM 27.0 °F 17.3 °F 8.1 °F 45% 29.79 in - WSW 10.4 mph 18.4 mph N/A   Unknown
1:00 PM 28.2 °F 18.9 °F 7.5 °F 42% 29.77 in - WSW 10.4 mph 21.9 mph N/A   Unknown
2:00 PM 28.6 °F 20.7 °F 7.5 °F 41% 29.74 in - WSW 8.1 mph - N/A   Unknown
3:00 PM 30.9 °F 23.5 °F 7.7 °F 38% 29.74 in - WSW 8.1 mph - N/A   Unknown
4:00 PM 29.5 °F 24.5 °F 6.6 °F 38% 29.76 in - WNW 4.6 mph - N/A   Unknown
5:00 PM 28.2 °F 24.4 °F 8.6 °F 44% 29.78 in - West 3.5 mph - N/A   Unknown
6:00 PM 26.4 °F 20.9 °F 12.4 °F 55% 29.80 in - West 4.6 mph - N/A   Unknown
7:00 PM 25.7 °F 19.0 °F 12.7 °F 58% 29.81 in - West 5.8 mph - N/A   Unknown
8:00 PM 27.5 °F 21.1 °F 11.3 °F 51% 29.81 in - West 5.8 mph - N/A   Unknown
9:00 PM 25.0 °F 18.1 °F 14.9 °F 66% 29.82 in - West 5.8 mph - N/A   Unknown
10:00 PM 23.2 °F 18.7 °F 11.3 °F 60% 29.83 in - WSW 3.5 mph - N/A   Unknown
11:00 PM 20.1 °F - 10.2 °F 66% 29.84 in - WSW 2.3 mph - N/A   Unknown